Weather reports worldwide

Advertisment
Tampico, Mexico (76548): temperature & dewpoint: 12.01.2018 23:00:00 - 18.01.2018 23:00:00 (CST)Tampico, Mexico (76548): wind speed: 12.01.2018 23:00:00 - 18.01.2018 23:00:00 (CST)Tampico, Mexico (76548): wind direction: 12.01.2018 23:00:00 - 18.01.2018 23:00:00 (CST)Tampico, Mexico (76548): reduced air pressure: 12.01.2018 23:00:00 - 18.01.2018 23:00:00 (CST)Tampico, Mexico (76548): visibility: 12.01.2018 23:00:00 - 18.01.2018 23:00:00 (CST)
Date & Time tt [°C] td [°C] ff [km/h] ff [kn] dd ppp [hPa] vv [km]
18.01.2018 23:00:00 - - - - - - -
18.01.2018 22:00:00 - - - - - - -
18.01.2018 21:00:00 10,4 9,3 7 4 NNE 1027,9 10
18.01.2018 20:00:00 - - - - - - -
18.01.2018 19:00:00 - - - - - - -
18.01.2018 18:00:00 12,0 10,2 4 2 NE 1026,7 12
18.01.2018 17:00:00 - - - - - - -
18.01.2018 16:00:00 - - - - - - -
18.01.2018 15:00:00 11,2 9,4 4 2 W 1027,8 12
18.01.2018 14:00:00 - - - - - - -
18.01.2018 13:00:00 - - - - - - -
18.01.2018 12:00:00 9,8 8,3 7 4 W 1031,7 12
18.01.2018 11:00:00 - - - - - - -
18.01.2018 10:00:00 - - - - - - -
18.01.2018 09:00:00 7,6 6,4 7 4 W 1032,1 10
18.01.2018 08:00:00 - - - - - - -
18.01.2018 07:00:00 - - - - - - -
18.01.2018 06:00:00 7,0 6,4 7 4 WNW 1031,5 10
18.01.2018 05:00:00 - - - - - - -
18.01.2018 04:00:00 - - - - - - -
18.01.2018 03:00:00 7,2 5,6 11 6 WNW 1033,3 10
18.01.2018 02:00:00 - - - - - - -
18.01.2018 01:00:00 - - - - - - -
18.01.2018 00:00:00 7,8 4,9 14 8 WNW 1035,0 10
17.01.2018 23:00:00 - - - - - - -
17.01.2018 22:00:00 - - - - - - -
17.01.2018 21:00:00 8,4 7,6 7 4 WNW 1035,3 8
17.01.2018 20:00:00 - - - - - - -
17.01.2018 19:00:00 - - - - - - -
17.01.2018 18:00:00 8,6 7,4 7 4 NW 1034,6 20
17.01.2018 17:00:00 - - - - - - -
17.01.2018 16:00:00 - - - - - - -
17.01.2018 15:00:00 8,6 6,2 4 2 WNW 1035,1 22
17.01.2018 14:00:00 - - - - - - -
17.01.2018 13:00:00 - - - - - - -
17.01.2018 12:00:00 6,6 5,4 7 4 N 1038,6 10
17.01.2018 11:00:00 - - - - - - -
17.01.2018 10:00:00 - - - - - - -
17.01.2018 09:00:00 7,0 6,4 11 6 WNW 1037,9 12
17.01.2018 08:00:00 - - - - - - -
17.01.2018 07:00:00 - - - - - - -
17.01.2018 06:00:00 6,4 5,8 7 4 WSW 1036,3 8
17.01.2018 05:00:00 - - - - - - -
17.01.2018 04:00:00 - - - - - - -
17.01.2018 03:00:00 4,8 4,2 11 6 N 1036,2 8
17.01.2018 02:00:00 - - - - - - -
17.01.2018 01:00:00 - - - - - - -
17.01.2018 00:00:00 4,6 4,0 7 4 N 1036,6 6
16.01.2018 23:00:00 - - - - - - -
16.01.2018 22:00:00 - - - - - - -
16.01.2018 21:00:00 5,4 4,5 18 10 N 1033,9 6
16.01.2018 20:00:00 - - - - - - -
16.01.2018 19:00:00 - - - - - - -
16.01.2018 18:00:00 8,8 7,2 25 14 NNE 1029,8 10
16.01.2018 17:00:00 - - - - - - -
16.01.2018 16:00:00 - - - - - - -
16.01.2018 15:00:00 16,4 14,8 18 10 NNE 1027,7 15
16.01.2018 14:00:00 - - - - - - -
16.01.2018 13:00:00 - - - - - - -
16.01.2018 12:00:00 18,2 16,6 11 6 NNE 1028,9 15
16.01.2018 11:00:00 - - - - - - -
16.01.2018 10:00:00 - - - - - - -
16.01.2018 09:00:00 17,8 13,6 7 4 N 1027,6 22
16.01.2018 08:00:00 - - - - - - -
16.01.2018 07:00:00 - - - - - - -
16.01.2018 06:00:00 15,8 14,5 4 2 NNW 1024,6 10
16.01.2018 05:00:00 - - - - - - -
16.01.2018 04:00:00 - - - - - - -
16.01.2018 03:00:00 14,2 13,9 4 2 WNW 1023,8 10
16.01.2018 02:00:00 - - - - - - -
16.01.2018 01:00:00 - - - - - - -
16.01.2018 00:00:00 16,0 14,4 4 2 S 1024,9 10
15.01.2018 23:00:00 - - - - - - -
15.01.2018 22:00:00 - - - - - - -
15.01.2018 21:00:00 18,0 14,5 4 2 SE 1024,6 10
15.01.2018 20:00:00 - - - - - - -
15.01.2018 19:00:00 - - - - - - -
15.01.2018 18:00:00 22,0 13,7 11 6 ESE 1023,0 22
15.01.2018 17:00:00 - - - - - - -
15.01.2018 16:00:00 - - - - - - -
15.01.2018 15:00:00 23,0 13,0 11 6 SSE 1023,8 24
15.01.2018 14:00:00 - - - - - - -
15.01.2018 13:00:00 - - - - - - -
15.01.2018 12:00:00 22,0 11,4 7 4 SW 1027,5 24
15.01.2018 11:00:00 - - - - - - -
15.01.2018 10:00:00 - - - - - - -
15.01.2018 09:00:00 15,4 13,4 4 2 NE 1028,2 18
15.01.2018 08:00:00 - - - - - - -
15.01.2018 07:00:00 - - - - - - -
15.01.2018 06:00:00 15,0 14,7 4 2 NW 1026,9 10
15.01.2018 05:00:00 - - - - - - -
15.01.2018 04:00:00 - - - - - - -
15.01.2018 03:00:00 14,0 13,7 4 2 SSW 1027,7 10
15.01.2018 02:00:00 - - - - - - -
15.01.2018 01:00:00 - - - - - - -
15.01.2018 00:00:00 13,8 13,1 4 2 SSW 1028,9 10
14.01.2018 23:00:00 - - - - - - -
14.01.2018 22:00:00 - - - - - - -
14.01.2018 21:00:00 15,4 13,8 0 0 N 1029,1 10
14.01.2018 20:00:00 - - - - - - -
14.01.2018 19:00:00 - - - - - - -
14.01.2018 18:00:00 20,0 13,2 4 2 E 1028,1 22
14.01.2018 17:00:00 - - - - - - -
14.01.2018 16:00:00 - - - - - - -
14.01.2018 15:00:00 22,2 10,8 4 2 E 1028,8 22
14.01.2018 14:00:00 - - - - - - -
14.01.2018 13:00:00 - - - - - - -
14.01.2018 12:00:00 19,2 10,2 7 4 WSW 1032,3 22
14.01.2018 11:00:00 - - - - - - -
14.01.2018 10:00:00 - - - - - - -
14.01.2018 09:00:00 14,6 10,4 4 2 WSW 1032,8 22
14.01.2018 08:00:00 - - - - - - -
14.01.2018 07:00:00 - - - - - - -
14.01.2018 06:00:00 14,2 10,0 7 4 NW 1031,5 10
14.01.2018 05:00:00 - - - - - - -
14.01.2018 04:00:00 - - - - - - -
14.01.2018 03:00:00 13,6 10,1 11 6 N 1031,3 10
14.01.2018 02:00:00 - - - - - - -
14.01.2018 01:00:00 - - - - - - -
14.01.2018 00:00:00 14,8 12,4 11 6 N 1033,1 10
13.01.2018 23:00:00 - - - - - - -
13.01.2018 22:00:00 - - - - - - -
13.01.2018 21:00:00 16,8 13,2 7 4 N 1033,3 10
13.01.2018 20:00:00 - - - - - - -
13.01.2018 19:00:00 - - - - - - -
13.01.2018 18:00:00 19,0 11,6 18 10 NNE 1031,9 24
13.01.2018 17:00:00 - - - - - - -
13.01.2018 16:00:00 - - - - - - -
13.01.2018 15:00:00 22,2 9,6 18 10 NE 1031,0 25
13.01.2018 14:00:00 - - - - - - -
13.01.2018 13:00:00 - - - - - - -
13.01.2018 12:00:00 21,2 8,2 18 10 N 1032,9 25
13.01.2018 11:00:00 - - - - - - -
13.01.2018 10:00:00 - - - - - - -
13.01.2018 09:00:00 14,6 5,3 14 8 N 1031,4 25
13.01.2018 08:00:00 - - - - - - -
13.01.2018 07:00:00 - - - - - - -
13.01.2018 06:00:00 11,4 1,0 11 6 N 1027,8 10
13.01.2018 05:00:00 - - - - - - -
13.01.2018 04:00:00 - - - - - - -
13.01.2018 03:00:00 12,8 2,4 11 6 N 1025,7 10
13.01.2018 02:00:00 - - - - - - -
13.01.2018 01:00:00 - - - - - - -
13.01.2018 00:00:00 13,4 7,6 4 2 N 1026,7 10
12.01.2018 23:00:00 - - - - - - -

tt = temperature
td = dewpoint
ff = wind speed
dd = wind direction
ppp = reduced air pressure
vv = visibility

Next stations